Location: Champignolles
(47.0543°N, 4.5663°E)
Time: 23:20:58
(UTC+00:00)

Envisat - Pass Details

Date: 06 March 2021
Orbit: 764 x 766 km, 98.1° (Epoch: 12 April)

Event Time Altitude Azimuth Distance (km) Brightness Sun altitude
Rises 04:46:31 0° 20° (NNE) 3,244 6.7 -15.4°
Reaches altitude 10° 04:49:00 10° 29° (NNE) 2,313 6.0 -15.0°
Maximum altitude 04:53:42 37° 96° (E) 1,180 4.6 -14.2°
Drops below altitude 10° 04:58:23 10° 164° (SSE) 2,295 5.6 -13.4°
Sets 05:00:50 0° 172° (S) 3,216 6.3 -13.0°
